Location: Amsterdam
(30.7274°N, 84.4357°W)
Time: 00:35:46
(UTC+00:00)

Courier 1B Rocket - Pass Details

Date: 12 February 2026
Orbit: 920 x 1201 km, 28.2° (Epoch: 9 March)

Event Time Altitude Azimuth Distance (km) Brightness Sun altitude
Rises 00:34:30 0° 206° (SSW) 3,558 8.4 -16.0°
Reaches altitude 10° 00:38:10 10° 185° (S) 2,647 7.4 -16.8°
Maximum altitude 00:41:51 16° 149° (SSE) 2,284 6.7 -17.6°
Enters shadow 00:43:35 14° 131° (SE) 2,398 6.7 -17.9°
Drops below altitude 10° 00:45:39 10° 114° (ESE) 2,741 - -18.4°
Sets 00:49:32 0° 94° (E) 3,752 - -19.2°
